Powrót do katalogu

STARLINK-5794

AktywnyŁącznośćVLEO
NORAD 56006·PAYLOAD·🇺🇸 United States

Wystrzelony Mar 24, 2023 z Cape Canaveral Space Force Station

Loading…

Następne Przeloty (najbliższe 24 godziny)

TLE

ŚwieżeSource: CelesTrak SupGP

Epoka: Sep 14, 2026, 14:00 UTC

1 56006C 23042W   26257.58381944 -.00011996  00000+0 -43452-3 0  2577
2 56006  43.0010  80.4674 0001353 261.8503 283.7302 15.27581099    16

Śledź STARLINK-5794 w czasie rzeczywistym z AllMySat

Download on the App Store